CZ-3B DEB, 40187

Orbit data source: Space-Track

CZ-3B DEB, 40187 is space debris in HEO originally from a launch on Mon, 19 Dec 2011 UTC launched from the Xichang Space Center, China (XSC). Debris objects in space refer to the collection of defunct objects orbiting the Earth. Examples of debris include non-operational satellites, rocket bodies, and fragments generated from explosions, collisions, or faulty payload assembly.

Loading next visibility...
Identifier
40187, 2011-077L
Orbit
HEO
Country
Flag of CNCN / PRC
Related business
Manufacturer
CALT
Mission
Spacecraft
Bus & Motor
Unknown
Mass
Unknown
Launch date (UTC)
2011-12-19 (15 years ago)
Launch vehicle
Unknown
Launch site
Xichang Space Center, China (XSC)
Object type
Payload
Rocket body
Debris
Shape & HBR
Unknown shape, 0.4 m
Radar Cross Section
Medium (>0.1 m² and <1 m²)

Expand to show TLE details & history
Last TLE update: 1 week ago

TLE from 1 week ago
0 CZ-3B DEB
1 40187U 11077L   26249.56251325 -.00000196  00000-0 -44465-2 0  9991
2 40187  26.7159 333.0755 7374919  74.9424 349.8164  1.90951798 96164
Epoch: 2026-09-06T13:30Z
TLE epoch observation values (Epoch: 2026-09-06T13:30:01.144Z)
Latitude
-0.00008°
Longitude
144.97724°
Altitude
4,143.205 km
Speed
7.826 km/s
True Right ascension
22h 12m 33s
True Declination
0° 00' 00"
Sunlit
Object was in full shadow at epoch
Visualization orbit readout
Latitude
Unknown
Longitude
Unknown
Altitude
Unknown
Speed
Unknown
Apparent Right ascension
Unknown
Apparent Declination
Unknown
Sunlit
N/A
Visualization observer readout
Local Sidereal Time
16:27:55
Azimuth
Unknown
Elevation
Unknown
Doppler factor
Unknown
Orbital elements
Apogee altitude
41,312.506 km
Perigee altitude
827.18 km
Semi-major axis
27,447.98 km
Eccentricity
0.73749
Inclination
26.7159°
RAAN
333.0755°
Arg. of periapsis
74.9424°
True anomaly
284.47264°
Mean anomaly
349.8164°
Eccentric anomaly
326.48496°
Mean motion
0.47728 °/min
Orbital period
754.27 mins
BSTAR
-0.0044465
Loading maneuver chart data...
Computing Atmospheric mass density...
Loading historical data...
Loading historical data...
Loading historical data...
Loading historical data...
Loading historical data...
Loading historical data...
Loading historical data...

Documentation

Showing up to 5 results
|